| time (UTC) | temp C | wind direction | speed KPH | gust KPH | rain 1hr cm | rain 24hr cm | rain mn cm | humidity % | barometer mb |
| 20260506091543 | 19 | 360 | 12.9 | 19.3 | 0.00 | 0.00 | 0.00 | 37 | 1010.8 |
| 20260506090037 | 20 | 360 | 16.1 | 24.1 | 0.00 | 0.00 | 0.00 | 36 | 1010.6 |
| 20260506084544 | 20 | 360 | 14.5 | 22.5 | 0.00 | 0.00 | 0.00 | 42 | 1010.5 |
| 20260506083036 | 20 | 360 | 11.3 | 16.1 | 0.00 | 0.00 | 0.00 | 45 | 1010.6 |
| 20260506081543 | 19 | 360 | 6.4 | 9.7 | 0.00 | 0.00 | 0.00 | 46 | 1010.6 |
| 20260506073037 | 20 | 360 | 12.9 | 16.1 | 0.00 | 0.00 | 0.00 | 43 | 1010.6 |
| 20260506071537 | 20 | 360 | 8.0 | 14.5 | 0.00 | 0.00 | 0.00 | 44 | 1010.4 |
| 20260506061537 | 21 | 360 | 4.8 | 8.0 | 0.00 | 0.00 | 0.00 | 40 | 1010.2 |
| 20260506044546 | 21 | 0 | 0.0 | 3.2 | 0.00 | 0.00 | 0.00 | 39 | 1009.9 |
| 20260506043043 | 21 | 360 | 3.2 | 4.8 | 0.00 | 0.00 | 0.00 | 38 | 1009.9 |
| 20260506041543 | 22 | 360 | 3.2 | 6.4 | 0.00 | 0.00 | 0.00 | 37 | 1009.8 |
| 20260506040044 | 22 | 360 | 3.2 | 6.4 | 0.00 | 0.00 | 0.00 | 37 | 1009.6 |
| 20260506034557 | 22 | 360 | 3.2 | 9.7 | 0.00 | 0.00 | 0.00 | 37 | 1009.5 |
| 20260506033038 | 22 | 360 | 6.4 | 9.7 | 0.00 | 0.00 | 0.00 | 38 | 1009.2 |
| 20260506031544 | 22 | 360 | 8.0 | 12.9 | 0.00 | 0.00 | 0.00 | 38 | 1009.0 |
| 20260506030044 | 22 | 360 | 6.4 | 9.7 | 0.00 | 0.00 | 0.00 | 37 | 1009.1 |
| 20260506024557 | 21 | 360 | 8.0 | 12.9 | 0.00 | 0.00 | 0.00 | 39 | 1008.8 |
| 20260506023041 | 22 | 360 | 9.7 | 14.5 | 0.00 | 0.00 | 0.00 | 38 | 1008.8 |
| 20260506021541 | 22 | 360 | 9.7 | 14.5 | 0.00 | 0.00 | 0.00 | 36 | 1008.9 |
| 20260506020037 | 23 | 360 | 11.3 | 14.5 | 0.00 | 0.00 | 0.00 | 34 | 1008.7 |
| 20260506014547 | 23 | 360 | 11.3 | 16.1 | 0.00 | 0.00 | 0.00 | 31 | 1008.5 |
| 20260506013100 | 25 | 360 | 12.9 | 17.7 | 0.00 | 0.00 | 0.00 | 29 | 1008.6 |
| 20260506011544 | 25 | 360 | 14.5 | 22.5 | 0.00 | 0.00 | 0.00 | 28 | 1008.5 |
| 20260506010043 | 26 | 360 | 20.9 | 30.6 | 0.00 | 0.00 | 0.00 | 27 | 1008.6 |
| 20260506004538 | 26 | 360 | 22.5 | 37.0 | 0.00 | 0.00 | 0.00 | 27 | 1008.7 |
| 20260506003039 | 26 | 360 | 20.9 | 30.6 | 0.00 | 0.00 | 0.00 | 26 | 1008.7 |
| 20260506001546 | 26 | 360 | 17.7 | 35.4 | 0.00 | 0.00 | 0.00 | 27 | 1008.7 |
| 20260506000044 | 26 | 360 | 22.5 | 37.0 | 0.00 | 0.00 | 0.00 | 26 | 1008.7 |
| 20260505234543 | 26 | 360 | 27.4 | 46.7 | 0.00 | 0.00 | 0.00 | 27 | 1008.8 |
| 20260505233041 | 26 | 360 | 29.0 | 40.2 | 0.00 | 0.00 | 0.00 | 27 | 1008.8 |
| 20260505231541 | 26 | 360 | 30.6 | 43.5 | 0.00 | 0.00 | 0.00 | 28 | 1008.6 |
| 20260505230051 | 25 | 360 | 29.0 | 41.8 | 0.00 | 0.00 | 0.00 | 29 | 1008.7 |
| 20260505224537 | 25 | 360 | 30.6 | 40.2 | 0.00 | 0.00 | 0.00 | 30 | 1009.1 |
| 20260505223055 | 24 | 360 | 30.6 | 41.8 | 0.00 | 0.00 | 0.00 | 31 | 1009.2 |
| 20260505221544 | 24 | 360 | 27.4 | 38.6 | 0.00 | 0.00 | 0.00 | 32 | 1009.1 |
| 20260505220046 | 24 | 360 | 30.6 | 41.8 | 0.00 | 0.00 | 0.00 | 32 | 1009.4 |
| 20260505214541 | 24 | 360 | 30.6 | 43.5 | 0.00 | 0.00 | 0.00 | 31 | 1009.5 |
| 20260505213051 | 24 | 360 | 27.4 | 45.1 | 0.00 | 0.00 | 0.00 | 30 | 1009.7 |
| 20260505211537 | 24 | 360 | 37.0 | 49.9 | 0.00 | 0.00 | 0.00 | 29 | 1009.8 |
| 20260505210038 | 25 | 360 | 37.0 | 49.9 | 0.00 | 0.00 | 0.00 | 28 | 1010.1 |
| 20260505204542 | 25 | 360 | 32.2 | 43.5 | 0.00 | 0.00 | 0.00 | 28 | 1010.3 |
| 20260505203050 | 25 | 360 | 30.6 | 41.8 | 0.00 | 0.00 | 0.00 | 28 | 1010.2 |
| 20260505201542 | 25 | 360 | 30.6 | 40.2 | 0.00 | 0.00 | 0.00 | 28 | 1010.3 |
| 20260505200037 | 25 | 360 | 29.0 | 41.8 | 0.00 | 0.00 | 0.00 | 28 | 1010.3 |
| 20260505194555 | 25 | 360 | 29.0 | 40.2 | 0.00 | 0.00 | 0.00 | 29 | 1010.2 |
| 20260505193043 | 25 | 360 | 24.1 | 30.6 | 0.00 | 0.00 | 0.00 | 29 | 1010.5 |
| 20260505191543 | 25 | 360 | 17.7 | 30.6 | 0.00 | 0.00 | 0.00 | 29 | 1010.5 |
| 20260505190043 | 24 | 360 | 22.5 | 33.8 | 0.00 | 0.00 | 0.00 | 28 | 1010.6 |
| 20260505184541 | 25 | 360 | 17.7 | 29.0 | 0.00 | 0.00 | 0.00 | 28 | 1010.8 |
| 20260505183051 | 25 | 360 | 17.7 | 32.2 | 0.00 | 0.00 | 0.00 | 27 | 1011.1 |
| 20260505181541 | 25 | 360 | 20.9 | 29.0 | 0.00 | 0.00 | 0.00 | 27 | 1011.1 |
| 20260505180054 | 25 | 360 | 17.7 | 27.4 | 0.00 | 0.00 | 0.00 | 27 | 1011.2 |
| 20260505174546 | 25 | 360 | 20.9 | 33.8 | 0.00 | 0.00 | 0.00 | 28 | 1011.1 |
| 20260505173044 | 24 | 360 | 17.7 | 32.2 | 0.00 | 0.00 | 0.00 | 28 | 1010.9 |
| 20260505171544 | 24 | 360 | 20.9 | 32.2 | 0.00 | 0.00 | 0.00 | 29 | 1010.9 |
| 20260505170043 | 24 | 360 | 20.9 | 35.4 | 0.00 | 0.00 | 0.00 | 29 | 1011.0 |
| 20260505164557 | 23 | 360 | 29.0 | 38.6 | 0.00 | 0.00 | 0.00 | 29 | 1010.8 |
| 20260505163048 | 23 | 360 | 24.1 | 35.4 | 0.00 | 0.00 | 0.00 | 29 | 1010.8 |
| 20260505161542 | 23 | 360 | 24.1 | 30.6 | 0.00 | 0.00 | 0.00 | 30 | 1010.8 |
| 20260505153059 | 22 | 360 | 19.3 | 24.1 | 0.00 | 0.00 | 0.00 | 32 | 1010.8 |
| 20260505151548 | 22 | 360 | 11.3 | 17.7 | 0.00 | 0.00 | 0.00 | 34 | 1010.5 |
| 20260505124543 | 20 | 360 | 8.0 | 9.7 | 0.00 | 0.00 | 0.00 | 38 | 1009.0 |
| 20260505123045 | 20 | 360 | 4.8 | 8.0 | 0.00 | 0.00 | 0.00 | 39 | 1008.8 |
| 20260505121549 | 20 | 360 | 1.6 | 4.8 | 0.00 | 0.00 | 0.00 | 37 | 1008.7 |
| 20260505120038 | 18 | 0 | 0.0 | 6.4 | 0.00 | 0.00 | 0.00 | 41 | 1008.6 |
| 20260505114541 | 19 | 360 | 1.6 | 4.8 | 0.00 | 0.00 | 0.00 | 40 | 1008.4 |
| 20260505113044 | 18 | 360 | 0.0 | 4.8 | 0.00 | 0.00 | 0.00 | 42 | 1008.3 |
| 20260505111552 | 18 | 360 | 3.2 | 6.4 | 0.00 | 0.00 | 0.00 | 43 | 1008.3 |
| 20260505101537 | 18 | 360 | 11.3 | 14.5 | 0.00 | 0.00 | 0.00 | 41 | 1008.2 |
| 20260505100047 | 20 | 360 | 9.7 | 12.9 | 0.00 | 0.00 | 0.00 | 38 | 1007.9 |
| 20260505094544 | 20 | 360 | 9.7 | 16.1 | 0.00 | 0.00 | 0.00 | 37 | 1007.8 |
| 20260505093045 | 20 | 360 | 14.5 | 17.7 | 0.00 | 0.00 | 0.00 | 38 | 1007.9 |